Regional Weather Roundup
Issued by NWS

Home | Current Version | Previous Version | Graphics & Text | Print | Product List | Glossary On
Versions: 1 2 3 4 5 6 7 8 9 10 11 12 13 14 15 16 17 18 19 20 21 22 23 24 25 26 27 28
000
ASUS45 KCYS 221910
RWRWY

WYOMING REGIONAL WEATHER ROUNDUP
NATIONAL WEATHER SERVICE CHEYENNE WY
100 PM MDT TUE AUG 22 2017

NOTE:  "FAIR" INDICATES FEW OR NO CLOUDS BELOW 12,000 FEET
WITH NO SIGNIFICANT WEATHER AND/OR OBSTRUCTIONS TO VISIBILITY.

WYZ001-222000-
YELLOWSTONE NATIONAL PARK

CITY           SKY/WX    TMP DP  RH WIND       PRES   REMARKS
LK YELLOWSTONE   N/A     65  43  44 VRB5      30.44F
W YELLOWSTONE  NOT AVBL

$$
WYZ002>013-054>058-071-098>099-222000-
NORTHERN WYOMING

CITY           SKY/WX    TMP DP  RH WIND       PRES   REMARKS
JACKSON        FAIR      73  36  25 VRB6      30.34F
CODY           FAIR      81  35  19 E9        30.23F
GREYBULL       FAIR      83  35  18 SE7       30.17F
WORLAND        FAIR      82  38  20 NE6       30.19F
SHERIDAN       FAIR      84  33  16 VRB5      30.19F
BUFFALO        FAIR      82  29  14 VRB6      30.25F
GILLETTE       FAIR      82  39  21 VRB6G16   30.20F
HULETT         FAIR      79  41  25 W9        30.23F
NEWCASTLE      FAIR      77  43  29 SE14G21   30.24F

$$
WYZ014>020-022>026-101>103-222000-
CENTRAL WYOMING

CITY           SKY/WX    TMP DP  RH WIND       PRES   REMARKS
BIG PINEY      FAIR      78  29  16 VRB7      30.38F
PINEDALE       FAIR      75  19  12 N5        30.39F
DUBOIS         FAIR      77  28  16 N8        30.34F
LANDER           N/A    N/A N/A N/A MISG      30.26F
RIVERTON       FAIR      77  40  26 E7        30.27F
CASPER         FAIR      80  41  24 S5        30.26F
DOUGLAS        FAIR      79  48  33 SE5       30.25F

$$
WYZ021-027>030-104>119-222000-
SOUTHERN WYOMING

CITY           SKY/WX    TMP DP  RH WIND       PRES   REMARKS
EVANSTON       PTSUNNY   80  33  18 VRB5G17   30.39F
KEMMERER         N/A     79  27  14 W15       30.40F
FORT BRIDGER   FAIR      83  27  13 N6        30.40F
ROCK SPRINGS   FAIR      81  28  14 W12G20    30.36F
DIXON          FAIR      82  28  14 W7        30.37
RAWLINS        NOT AVBL
SARATOGA       FAIR      81  28  15 NW8G21    30.37F
LARAMIE        FAIR      79  31  17 N9        30.36F
CHEYENNE       FAIR      70  54  56 S15       30.35F
TORRINGTON     FAIR      82  53  36 S20       30.21F
PINE BLUFFS    FAIR      73  50  43 S16       30.31F

$$




USA.gov is the U.S. government's official web portal to all federal, state and local government web resources and services.